AUA730 LQSA-LOWW

Flight info

Callsign AUA730
Flight time 0h 58m
Altitude 32000
Route BOSNA DCT IRDIV DCT NOVLO DCT ZAG DCT OBUTI OBUTI2W
Aircraft A20N/M-SDE2E3FGHIRWXY/LB2

Departure

Time 2026-05-05 14:06
Airport Sarajevo International Airport (LQSA)

Arrival

Time 2026-05-05 15:04
Airport Vienna International Airport (LOWW)
Time Latitude Longitude Altitude Speed Heading
2026-05-05 13:36 43.82495 18.33803 1688 ft 0 kts 27°
2026-05-05 13:56 43.82483 18.33795 1691 ft 4 kts 28°
2026-05-05 13:56 43.82460 18.33777 1692 ft 4 kts 34°
2026-05-05 13:56 43.82440 18.33754 1692 ft 4 kts 49°
2026-05-05 13:56 43.82432 18.33741 1691 ft 1 kts 58°
2026-05-05 14:00 43.82433 18.33743 1691 ft 2 kts 58°
2026-05-05 14:00 43.82432 18.33753 1692 ft 0 kts 104°
2026-05-05 14:01 43.82426 18.33763 1689 ft 4 kts 137°
2026-05-05 14:01 43.82398 18.33802 1690 ft 7 kts 129°
2026-05-05 14:01 43.82370 18.33869 1692 ft 9 kts 116°
2026-05-05 14:01 43.82339 18.33956 1693 ft 11 kts 116°
2026-05-05 14:02 43.82303 18.34053 1695 ft 12 kts 119°
2026-05-05 14:02 43.82264 18.34146 1701 ft 11 kts 119°
2026-05-05 14:02 43.82230 18.34235 1702 ft 11 kts 118°
2026-05-05 14:02 43.82193 18.34334 1705 ft 13 kts 115°
2026-05-05 14:03 43.82151 18.34457 1705 ft 14 kts 118°
2026-05-05 14:03 43.82117 18.34536 1708 ft 8 kts 120°
2026-05-05 14:03 43.82082 18.34598 1711 ft 8 kts 143°
2026-05-05 14:03 43.82059 18.34614 1711 ft 1 kts 162°
2026-05-05 14:04 43.82051 18.34617 1712 ft 2 kts 165°
2026-05-05 14:04 43.82009 18.34621 1712 ft 10 kts 186°
2026-05-05 14:04 43.81950 18.34552 1710 ft 14 kts 262°
2026-05-05 14:04 43.81966 18.34459 1707 ft 0 kts 295°
2026-05-05 14:05 43.81998 18.34369 1707 ft 44 kts 298°
2026-05-05 14:05 43.82281 18.33610 1693 ft 129 kts 297°
2026-05-05 14:06 43.82813 18.32278 1816 ft 179 kts 296°
2026-05-05 14:06 43.83449 18.30781 2635 ft 181 kts 294°
2026-05-05 14:06 43.84028 18.29161 3362 ft 199 kts 292°
2026-05-05 14:06 43.84666 18.27289 3951 ft 231 kts 293°
2026-05-05 14:07 43.85739 18.25478 4475 ft 260 kts 321°
2026-05-05 14:07 43.87450 18.24493 4974 ft 274 kts 349°
2026-05-05 14:07 43.89368 18.24504 5480 ft 277 kts
2026-05-05 14:07 43.91294 18.24907 5990 ft 283 kts
2026-05-05 14:08 43.93258 18.25321 6492 ft 287 kts
2026-05-05 14:08 43.95189 18.25613 6896 ft 271 kts
2026-05-05 14:08 43.97054 18.25495 7338 ft 272 kts 352°
2026-05-05 14:08 43.98997 18.25247 7791 ft 295 kts 353°
2026-05-05 14:09 44.01068 18.24972 8243 ft 302 kts 353°
2026-05-05 14:09 44.03160 18.24695 8708 ft 303 kts 353°
2026-05-05 14:09 44.05264 18.24348 9153 ft 304 kts 345°
2026-05-05 14:09 44.07177 18.23160 9626 ft 301 kts 321°
2026-05-05 14:10 44.08651 18.21119 10090 ft 303 kts 308°
2026-05-05 14:10 44.10084 18.18821 10518 ft 325 kts 308°
2026-05-05 14:10 44.11618 18.16373 10975 ft 344 kts 308°
2026-05-05 14:10 44.13219 18.13831 11425 ft 352 kts 309°
2026-05-05 14:11 44.14842 18.11269 11868 ft 353 kts 309°
2026-05-05 14:11 44.16470 18.08702 12324 ft 354 kts 309°
2026-05-05 14:11 44.18106 18.06119 12793 ft 356 kts 309°
2026-05-05 14:11 44.19726 18.03559 13253 ft 357 kts 309°
2026-05-05 14:12 44.21372 18.00949 13739 ft 360 kts 308°
2026-05-05 14:12 44.23027 17.98325 14165 ft 361 kts 308°
2026-05-05 14:12 44.24692 17.95683 14601 ft 362 kts 308°
2026-05-05 14:12 44.26357 17.93043 15029 ft 363 kts 308°
2026-05-05 14:13 44.28031 17.90383 15463 ft 365 kts 308°
2026-05-05 14:13 44.29707 17.87712 15922 ft 367 kts 308°
2026-05-05 14:13 44.31394 17.85019 16374 ft 368 kts 308°
2026-05-05 14:13 44.33092 17.82309 16841 ft 372 kts 308°
2026-05-05 14:14 44.34800 17.79582 17306 ft 373 kts 308°
2026-05-05 14:14 44.36573 17.76909 17787 ft 376 kts 314°
2026-05-05 14:14 44.38594 17.74566 18267 ft 381 kts 321°
2026-05-05 14:14 44.40813 17.72511 18675 ft 383 kts 324°
2026-05-05 14:15 44.43014 17.70493 19100 ft 384 kts 323°
2026-05-05 14:15 44.45248 17.68427 19525 ft 385 kts 323°
2026-05-05 14:15 44.47489 17.66348 19967 ft 387 kts 323°
2026-05-05 14:15 44.49740 17.64258 20404 ft 388 kts 323°
2026-05-05 14:16 44.51993 17.62166 20860 ft 390 kts 323°
2026-05-05 14:16 44.54263 17.60059 21311 ft 391 kts 323°
2026-05-05 14:16 44.56533 17.57949 21767 ft 393 kts 323°
2026-05-05 14:16 44.58821 17.55820 22241 ft 395 kts 323°
2026-05-05 14:17 44.61121 17.53678 22732 ft 398 kts 323°
2026-05-05 14:17 44.63430 17.51525 23205 ft 399 kts 324°
2026-05-05 14:17 44.65756 17.49355 23593 ft 402 kts 324°
2026-05-05 14:17 44.68089 17.47177 23868 ft 403 kts 324°
2026-05-05 14:18 44.70403 17.45014 24142 ft 405 kts 324°
2026-05-05 14:18 44.72756 17.42813 24420 ft 407 kts 324°
2026-05-05 14:18 44.75117 17.40603 24708 ft 409 kts 323°
2026-05-05 14:18 44.77493 17.38376 24994 ft 411 kts 323°
2026-05-05 14:19 44.79881 17.36134 25267 ft 413 kts 323°
2026-05-05 14:19 44.82282 17.33879 25571 ft 415 kts 323°
2026-05-05 14:19 44.84690 17.31615 25867 ft 418 kts 323°
2026-05-05 14:19 44.87114 17.29333 26168 ft 420 kts 323°
2026-05-05 14:20 44.89545 17.27042 26465 ft 422 kts 323°
2026-05-05 14:20 44.91966 17.24759 26769 ft 424 kts 323°
2026-05-05 14:20 44.94390 17.22470 27073 ft 426 kts 323°
2026-05-05 14:20 44.96859 17.20138 27383 ft 429 kts 323°
2026-05-05 14:21 44.99345 17.17785 27697 ft 431 kts 323°
2026-05-05 14:21 45.01841 17.15421 28021 ft 434 kts 323°
2026-05-05 14:21 45.04353 17.13039 28341 ft 436 kts 323°
2026-05-05 14:21 45.06891 17.10630 28668 ft 439 kts 323°
2026-05-05 14:22 45.09426 17.08219 29007 ft 441 kts 323°
2026-05-05 14:22 45.11980 17.05787 29331 ft 444 kts 323°
2026-05-05 14:22 45.14556 17.03332 29672 ft 446 kts 323°
2026-05-05 14:22 45.17139 17.00867 30008 ft 449 kts 323°
2026-05-05 14:23 45.19740 16.98382 30308 ft 452 kts 323°
2026-05-05 14:23 45.22347 16.95889 30602 ft 454 kts 323°
2026-05-05 14:23 45.24973 16.93376 30900 ft 456 kts 323°
2026-05-05 14:23 45.27604 16.90855 31200 ft 455 kts 323°
2026-05-05 14:24 45.30231 16.88338 31508 ft 454 kts 323°
2026-05-05 14:24 45.32853 16.85822 31818 ft 453 kts 323°
2026-05-05 14:24 45.35469 16.83310 31972 ft 453 kts 323°
2026-05-05 14:24 45.38078 16.80800 31964 ft 453 kts 323°
2026-05-05 14:25 45.43262 16.75804 31963 ft 453 kts 323°
2026-05-05 14:25 45.48486 16.70757 31967 ft 453 kts 323°
2026-05-05 14:26 45.53711 16.65701 31968 ft 454 kts 323°
2026-05-05 14:26 45.58915 16.60649 31967 ft 453 kts 323°
2026-05-05 14:27 45.64128 16.55580 31965 ft 453 kts 323°
2026-05-05 14:27 45.69337 16.50502 31971 ft 452 kts 323°
2026-05-05 14:28 45.74537 16.45422 31967 ft 452 kts 323°
2026-05-05 14:28 45.79737 16.40330 31972 ft 452 kts 323°
2026-05-05 14:29 45.84900 16.35262 31971 ft 452 kts 323°
2026-05-05 14:29 45.90560 16.31305 31968 ft 458 kts 342°
2026-05-05 14:30 45.96925 16.30187 31951 ft 463 kts 355°
2026-05-05 14:30 46.03372 16.29752 31956 ft 464 kts 355°
2026-05-05 14:31 46.09834 16.29309 31955 ft 465 kts 355°
2026-05-05 14:31 46.16269 16.28872 31944 ft 466 kts 355°
2026-05-05 14:32 46.22755 16.28433 31948 ft 466 kts 354°
2026-05-05 14:32 46.29241 16.27992 31944 ft 466 kts 354°
2026-05-05 14:33 46.35738 16.27550 31941 ft 467 kts 354°
2026-05-05 14:33 46.42107 16.26385 31939 ft 464 kts 347°
2026-05-05 14:34 46.48501 16.24876 31943 ft 466 kts 348°
2026-05-05 14:34 46.54904 16.23371 31645 ft 464 kts 348°
2026-05-05 14:35 46.58087 16.22618 31196 ft 463 kts 348°
2026-05-05 14:35 46.61271 16.21862 30729 ft 464 kts 348°
2026-05-05 14:35 46.64468 16.21101 30299 ft 465 kts 348°
2026-05-05 14:35 46.67658 16.20341 29842 ft 463 kts 348°
2026-05-05 14:36 46.70780 16.19598 29342 ft 459 kts 348°
2026-05-05 14:36 46.73917 16.18850 28841 ft 455 kts 348°
2026-05-05 14:36 46.77027 16.18107 28352 ft 452 kts 347°
2026-05-05 14:36 46.80120 16.17365 27874 ft 448 kts 348°
2026-05-05 14:37 46.83199 16.16627 27389 ft 446 kts 347°
2026-05-05 14:37 46.86256 16.15895 26923 ft 444 kts 348°
2026-05-05 14:37 46.89295 16.15167 26462 ft 441 kts 348°
2026-05-05 14:37 46.92316 16.14441 26013 ft 438 kts 348°
2026-05-05 14:38 46.95317 16.13719 25564 ft 435 kts 348°
2026-05-05 14:38 46.98298 16.13000 25131 ft 433 kts 348°
2026-05-05 14:38 47.01273 16.12283 24707 ft 432 kts 348°
2026-05-05 14:38 47.04228 16.11569 24261 ft 430 kts 348°
2026-05-05 14:39 47.07178 16.10854 23854 ft 428 kts 348°
2026-05-05 14:39 47.10109 16.10142 23431 ft 425 kts 348°
2026-05-05 14:39 47.12980 16.09442 22942 ft 422 kts 348°
2026-05-05 14:39 47.15873 16.08740 22458 ft 419 kts 348°
2026-05-05 14:40 47.18741 16.08043 21987 ft 416 kts 348°
2026-05-05 14:40 47.21585 16.07353 21520 ft 413 kts 348°
2026-05-05 14:40 47.24413 16.06666 21042 ft 411 kts 348°
2026-05-05 14:40 47.27224 16.05982 20598 ft 407 kts 348°
2026-05-05 14:41 47.30020 16.05301 20150 ft 405 kts 348°
2026-05-05 14:41 47.31853 16.04853 19860 ft 403 kts 348°
2026-05-05 14:41 47.35543 16.04189 19280 ft 403 kts 357°
2026-05-05 14:41 47.38326 16.04533 18855 ft 402 kts
2026-05-05 14:42 47.41017 16.05633 18436 ft 399 kts 18°
2026-05-05 14:42 47.43631 16.06945 17975 ft 396 kts 17°
2026-05-05 14:42 47.46248 16.08238 17514 ft 395 kts 17°
2026-05-05 14:42 47.47980 16.09093 17193 ft 394 kts 17°
2026-05-05 14:43 47.50568 16.10373 16732 ft 391 kts 17°
2026-05-05 14:43 47.53141 16.11649 16284 ft 388 kts 17°
2026-05-05 14:43 47.55690 16.12918 15795 ft 384 kts 17°
2026-05-05 14:43 47.58224 16.14179 15362 ft 383 kts 17°
2026-05-05 14:44 47.60756 16.15436 14924 ft 383 kts 17°
2026-05-05 14:44 47.63279 16.16694 14486 ft 381 kts 17°
2026-05-05 14:44 47.65745 16.17929 14049 ft 376 kts 17°
2026-05-05 14:44 47.68213 16.19160 13634 ft 372 kts 17°
2026-05-05 14:45 47.70652 16.20384 13167 ft 367 kts 17°
2026-05-05 14:45 47.73063 16.21593 12695 ft 363 kts 17°
2026-05-05 14:45 47.75390 16.23029 12227 ft 362 kts 30°
2026-05-05 14:45 47.77311 16.25398 11769 ft 359 kts 50°
2026-05-05 14:46 47.78675 16.28468 11325 ft 355 kts 60°
2026-05-05 14:46 47.79903 16.31617 11055 ft 347 kts 61°
2026-05-05 14:46 47.81086 16.34652 10985 ft 331 kts 61°
2026-05-05 14:46 47.82216 16.37542 10989 ft 315 kts 61°
2026-05-05 14:47 47.83290 16.40289 10975 ft 300 kts 61°
2026-05-05 14:47 47.84315 16.42916 10731 ft 295 kts 61°
2026-05-05 14:47 47.85351 16.45575 10448 ft 292 kts 61°
2026-05-05 14:47 47.86351 16.48146 10158 ft 289 kts 61°
2026-05-05 14:48 47.87350 16.50711 9865 ft 285 kts 61°
2026-05-05 14:48 47.88342 16.53259 9557 ft 282 kts 62°
2026-05-05 14:48 47.89320 16.55773 9261 ft 279 kts 62°
2026-05-05 14:48 47.90425 16.58136 8930 ft 278 kts 43°
2026-05-05 14:49 47.92058 16.59585 8618 ft 272 kts 13°
2026-05-05 14:49 47.93908 16.60069 8316 ft 269 kts
2026-05-05 14:49 47.95731 16.60449 8040 ft 266 kts
2026-05-05 14:49 47.97513 16.60829 7967 ft 257 kts
2026-05-05 14:50 47.99202 16.61201 7961 ft 242 kts
2026-05-05 14:50 48.00839 16.61567 7969 ft 238 kts
2026-05-05 14:50 48.02528 16.61945 7947 ft 253 kts
2026-05-05 14:50 48.04323 16.62349 7792 ft 262 kts
2026-05-05 14:51 48.06112 16.62753 7615 ft 258 kts
2026-05-05 14:51 48.07872 16.63154 7433 ft 252 kts
2026-05-05 14:51 48.09562 16.63539 7266 ft 247 kts
2026-05-05 14:51 48.11258 16.63925 7092 ft 246 kts
2026-05-05 14:52 48.12970 16.64313 6922 ft 252 kts
2026-05-05 14:52 48.14717 16.64708 6764 ft 254 kts
2026-05-05 14:52 48.16463 16.65103 6590 ft 252 kts
2026-05-05 14:52 48.18167 16.65493 6425 ft 249 kts
2026-05-05 14:53 48.19873 16.65885 6255 ft 246 kts
2026-05-05 14:53 48.21582 16.66255 6086 ft 248 kts
2026-05-05 14:53 48.23283 16.66036 5995 ft 240 kts 340°
2026-05-05 14:53 48.24827 16.65355 5998 ft 223 kts 339°
2026-05-05 14:54 48.26272 16.64742 5994 ft 209 kts 339°
2026-05-05 14:54 48.27653 16.64163 6003 ft 208 kts 339°
2026-05-05 14:54 48.29064 16.63561 5934 ft 215 kts 339°
2026-05-05 14:54 48.30491 16.62963 5796 ft 212 kts 340°
2026-05-05 14:55 48.31924 16.62364 5471 ft 215 kts 340°
2026-05-05 14:55 48.33380 16.61748 5100 ft 218 kts 340°
2026-05-05 14:55 48.34804 16.61147 4985 ft 206 kts 340°
2026-05-05 14:55 48.36043 16.60215 5015 ft 202 kts 308°
2026-05-05 14:56 48.36698 16.58455 4903 ft 187 kts 271°
2026-05-05 14:56 48.36769 16.56584 4731 ft 176 kts 262°
2026-05-05 14:56 48.36822 16.54826 4687 ft 164 kts 263°
2026-05-05 14:56 48.36875 16.53069 4693 ft 172 kts 263°
2026-05-05 14:57 48.36928 16.51291 4687 ft 167 kts 259°
2026-05-05 14:57 48.36650 16.49683 4698 ft 156 kts 231°
2026-05-05 14:57 48.35876 16.48646 4699 ft 147 kts 201°
2026-05-05 14:57 48.34883 16.48353 4698 ft 146 kts 180°
2026-05-05 14:58 48.33859 16.48547 4697 ft 150 kts 171°
2026-05-05 14:58 48.32843 16.48935 4679 ft 151 kts 167°
2026-05-05 14:58 48.31844 16.49366 4518 ft 149 kts 167°
2026-05-05 14:58 48.30856 16.49784 4318 ft 146 kts 167°
2026-05-05 14:59 48.29878 16.50202 4140 ft 146 kts 167°
2026-05-05 14:59 48.28904 16.50616 3949 ft 146 kts 167°
2026-05-05 14:59 48.27922 16.51035 3777 ft 146 kts 167°
2026-05-05 14:59 48.26946 16.51455 3584 ft 145 kts 167°
2026-05-05 15:00 48.25976 16.51865 3386 ft 144 kts 167°
2026-05-05 15:00 48.25344 16.52139 3268 ft 143 kts 167°
2026-05-05 15:00 48.24091 16.52670 3043 ft 140 kts 167°
2026-05-05 15:00 48.23141 16.53076 2846 ft 144 kts 167°
2026-05-05 15:01 48.22180 16.53483 2664 ft 138 kts 167°
2026-05-05 15:01 48.21315 16.53856 2480 ft 124 kts 168°
2026-05-05 15:01 48.20471 16.54210 2316 ft 125 kts 168°
2026-05-05 15:01 48.19645 16.54563 2157 ft 123 kts 168°
2026-05-05 15:02 48.18795 16.54922 1994 ft 130 kts 168°
2026-05-05 15:02 48.17961 16.55281 1820 ft 118 kts 166°
2026-05-05 15:02 48.17234 16.55591 1683 ft 105 kts 168°
2026-05-05 15:02 48.16516 16.55893 1536 ft 110 kts 167°
2026-05-05 15:03 48.15720 16.56229 1396 ft 128 kts 167°
2026-05-05 15:03 48.14850 16.56599 1216 ft 130 kts 168°
2026-05-05 15:03 48.13991 16.56963 1041 ft 127 kts 168°
2026-05-05 15:03 48.13163 16.57314 879 ft 123 kts 169°
2026-05-05 15:04 48.12306 16.57678 751 ft 133 kts 168°
2026-05-05 15:04 48.11472 16.58040 613 ft 114 kts 168°
2026-05-05 15:04 48.10927 16.58254 617 ft 34 kts 162°
2026-05-05 15:04 48.10782 16.58293 613 ft 16 kts 185°
2026-05-05 15:05 48.10575 16.58222 619 ft 12 kts 222°
2026-05-05 15:05 48.10584 16.58138 608 ft 8 kts 320°
2026-05-05 15:05 48.10647 16.58097 610 ft 12 kts 342°
2026-05-05 15:06 48.10737 16.58063 608 ft 15 kts 349°
2026-05-05 15:06 48.10849 16.58021 614 ft 18 kts 343°
2026-05-05 15:06 48.10982 16.57958 616 ft 22 kts 342°
2026-05-05 15:06 48.11114 16.57840 616 ft 24 kts 298°
2026-05-05 15:07 48.11176 16.57659 620 ft 16 kts 299°
2026-05-05 15:07 48.11228 16.57494 615 ft 19 kts 295°
2026-05-05 15:07 48.11303 16.57332 613 ft 16 kts 339°
2026-05-05 15:07 48.11359 16.57354 615 ft 7 kts 30°
2026-05-05 15:08 48.11413 16.57400 613 ft 11 kts 28°
2026-05-05 15:08 48.11490 16.57449 608 ft 12 kts 356°
2026-05-05 15:08 48.11586 16.57430 624 ft 16 kts 356°
2026-05-05 15:08 48.11704 16.57398 619 ft 19 kts 345°
2026-05-05 15:09 48.11802 16.57344 618 ft 14 kts 318°
2026-05-05 15:09 48.11863 16.57209 611 ft 17 kts 295°
2026-05-05 15:09 48.11912 16.57049 615 ft 16 kts 295°
2026-05-05 15:09 48.11944 16.56924 615 ft 10 kts 273°
2026-05-05 15:10 48.11907 16.56844 615 ft 3 kts 213°
2026-05-05 15:10 48.11892 16.56831 611 ft 3 kts 209°
2026-05-05 15:10 48.11884 16.56824 612 ft 1 kts 208°
2026-05-05 15:10 48.11881 16.56822 611 ft 0 kts 208°